Grand Canyon, AZ

11:33 AM MST on August 18, 2017 (GMT -0700)
Grand Canyon National Park

Weather History for KGCN - June, 2013

Change the Weather History Date:

Monday, June 17, 2013

  Actual Average Record
Temperature  
Mean Temperature 60 °F -  
Max Temperature 84 °F 79 °F 91 °F (2017)
Min Temperature 37 °F 36 °F 33 °F (1992)
Degree Days  
Heating Degree Days 4    
Growing Degree Days 10 (Base 50)    
Moisture  
Dew Point 5 °F    
Average Humidity 15    
Maximum Humidity 37    
Minimum Humidity 4    
Precipitation  
Precipitation 0.00 in - - ()
Sea Level Pressure  
Sea Level Pressure 29.95 in    
Wind  
Wind Speed 4 mph (SW)    
Max Wind Speed 18 mph    
Max Gust Speed 25 mph    
Visibility 10 miles    
Events      
Averages and records for this station are not official NWS values.
T = Trace of Precipitation, MM = Missing Value Source: NWS Daily Summary

Daily Weather History Graph

Daily Weather History Graph

Search for Another Location

Airport or City:

Trip Planner

Search our weather history database for the weather conditions in past years. The results will help you decide how hot, cold, wet, or windy it might be!

Date:

Astronomy

Jun. 17, 2013 Rise Set
Actual Time 5:11 AM MST 7:47 PM MST
Civil Twilight 4:41 AM MST 8:17 PM MST
Nautical Twilight 4:03 AM MST 8:55 PM MST
Astronomical Twilight 3:22 AM MST 9:37 PM MST
Moon 1:39 PM MST (6/17) 12:39 AM MST (6/17)
Length of Visible Light 15h 36m
Length of Day
14h 35m
First Quarter, 61% of the Moon is Illuminated
Jun 17
First Quarter
Jun 23
Full
Jun 29
Last Quarter
Jul 8
New
Jul 15
First Quarter

Hourly Weather History & Observations

Time (MST) Temp. Windchill Dew Point Humidity Pressure Visibility Wind Dir Wind Speed Gust Speed Precip Events Conditions
12:54 AM 43.0 °F - 12.0 °F 28% 29.98 in 10.0 mi Calm Calm - N/A   Clear
1:54 AM 42.1 °F - 12.0 °F 29% 29.97 in 10.0 mi Calm Calm - N/A   Clear
2:54 AM 39.0 °F 36.8 °F 12.0 °F 33% 29.98 in 10.0 mi East 3.5 mph - N/A   Clear
3:54 AM 39.0 °F - 12.9 °F 34% 29.99 in 10.0 mi Calm Calm - N/A   Clear
4:54 AM 37.0 °F - 12.9 °F 37% 30.00 in 10.0 mi Calm Calm - N/A   Clear
5:54 AM 41.0 °F - 14.0 °F 33% 30.01 in 10.0 mi Calm Calm - N/A   Clear
6:54 AM 55.9 °F - 21.0 °F 26% 29.96 in 10.0 mi Calm Calm - N/A   Clear
7:54 AM 72.0 °F - 17.1 °F 12% 29.93 in 10.0 mi Calm Calm - N/A   Clear
8:54 AM 75.0 °F - 19.9 °F 13% 29.95 in 10.0 mi SSW 8.1 mph 18.4 mph N/A   Clear
9:54 AM 77.0 °F - 21.9 °F 13% 29.98 in 10.0 mi SW 16.1 mph 20.7 mph N/A   Clear
10:54 AM 79.0 °F - 19.0 °F 11% 29.98 in 10.0 mi SW 11.5 mph 25.3 mph N/A   Clear
11:54 AM 81.0 °F - 16.0 °F 9% 29.98 in 10.0 mi SW 18.4 mph 24.2 mph N/A   Clear
12:54 PM 82.9 °F - 8.1 °F 6% 29.97 in 10.0 mi WSW 17.3 mph 23.0 mph N/A   Clear
1:54 PM 84.9 °F - 1.9 °F 4% 29.94 in 10.0 mi SSW 12.7 mph 24.2 mph N/A   Clear
2:54 PM 84.0 °F - 3.0 °F 4% 29.94 in 10.0 mi Variable 6.9 mph 24.2 mph N/A   Clear
3:54 PM 82.9 °F - -8.0 °F 4% 29.92 in 10.0 mi Variable 5.8 mph 17.3 mph N/A   Clear
4:54 PM 84.0 °F - -17.0 °F 4% 29.91 in 10.0 mi West 8.1 mph - N/A   Clear
5:54 PM 82.0 °F - -15.0 °F 4% 29.90 in 10.0 mi SW 16.1 mph 24.2 mph N/A   Clear
6:54 PM 79.0 °F - -17.0 °F 4% 29.86 in 10.0 mi SW 9.2 mph - N/A   Partly Cloudy
7:54 PM 69.1 °F - -13.0 °F 4% 29.84 in 10.0 mi WSW 5.8 mph - N/A   Clear
8:54 PM 48.9 °F - -9.0 °F 9% 29.92 in 10.0 mi Calm Calm - N/A   Clear
9:54 PM 44.1 °F - -6.0 °F 12% 29.96 in 10.0 mi Calm Calm - N/A   Clear
10:54 PM 45.0 °F - -2.9 °F 14% 29.94 in 10.0 mi Calm Calm - N/A   Clear
11:54 PM 41.0 °F - -2.9 °F 16% 29.95 in 10.0 mi Calm Calm - N/A   Clear